Tracking 18840 objects as of 19-November-2017
HD Live streaming from Space Station
objects crossing your sky now

FENGYUN 1C DEB

Track FENGYUN 1C DEB now!
10-day predictions


NORAD ID: 31058
Int'l Code: 1999-025BFC
Perigee: 628.6 km
Apogee: 826.5 km
Inclination: 99.6 °
Period: 99.2 minutes
Semi major axis: 7098 km
RCS: 0.0094 m2 (small)
Launch date: May 10, 1999
Source: People's Republic of China (PRC)
Launch site: Taiyaun Space Center, China (TSC)

Note: This is SATELLITE DEBRIS
aabbcc
Your satellite tracking list
Your tracking list is empty




NASA's NSSDC Master Catalog

Two Line Element Set (TLE):
1 31058U 99025BFC 17320.75789355  .00000508  00000-0  12667-3 0  9992
2 31058  99.6066 149.3165 0139426 245.5758 113.0833 14.51604467566256
Source of the keplerian elements: AFSPC